HALOSAT (43549 NORAD) Tracking and Keplerian Element Data

This shows tracking and keplerian element data for the satellite.

Feedback or suggestion? Click here.




ElementValue
Catalog43549
NameHALOSAT
Epoch Orbit1892
Epoch Day318.56523241
Epoch Year2018
RAAN347.8907
Inclination51.6401
Eccentricity0.0006576
Argument of Perigee48.6831
Mean Anonmoly311.4725
Mean Motion15.56643434
Decay Rate9.045E-05
L11 43549U 98067NX 18318.56523241 .00009045 00000-0 13116-3 0 9997
L22 43549 51.6401 347.8907 0006576 48.6831 311.4725 15.56643434 18920

Live tracking and technical data element details for HALOSAT (NORAD 43549). HALOSAT can be tracked NOW for your location showing map with azimuth and elevation plus other details from your city location.

Track the satellite on the map from your city or location and see movement details for azimuth, elevation, latitude, longitude, range, height, and movement on the map or in text.







IsCatalogInMostPopularTable: catalog: 43549, numindb: 47
Update: records affected: 1



GetName: 43549 HALOSAT

Hit Count: updated at: Fri, 16 Nov 2018 03:18:15 GMT